Zurück zum Katalog

STARLINK-37527

AktivKommunikationSSO
NORAD 68895·PAYLOAD·🇺🇸 United States

Gestartet Apr 30, 2026 von Vandenberg Space Force Base

Loading…

Nächste Überflüge (nächste 24 Stunden)

TLE

AktuellSource: CelesTrak SupGP

Epoche: Sep 14, 2026, 15:07 UTC

1 68895C 26097A   26257.63034722 -.00071863  00000+0 -22327-2 0  2570
2 68895  97.2849  91.7837 0001867  87.6488  54.9867 15.33447228    14

Verfolge STARLINK-37527 in Echtzeit mit AllMySat

Download on the App Store